Hovedside
METAR-TAF:

METAR-TAF

Lufthavner :

Pajala, Sverige

Pajala lufthavn

breddegrad: 67-14-44N, lengdegrad: 023-04-08E, høyde over havet: 165 m

Gjeldene værobservasjon

Denne rapporten ble laget for 26 minutter siden, klokken 19:50 UTC
Vind 7 kt fra Nord-nordøst, skiftende mellom Nord-nordvest og Øst-nordøst
Temperatur 2°C
Luftfuktighet 93%
Trykk 1007 hPa
Sikt 10 km eller mer

METAR: ESUP 281950Z AUTO 03007KT 340V070 9999 FEW006/// OVC008/// 02/01 Q1007

Tid: 22:16 (20:16 UTC)


TAF: fraværende

Værobservasjoner og værvarsel for over 4000 flyplasser (METAR- og TAF-rapporter).

Tilgjengelige stasjoner er representert av de røde og gule prikkene på kartet.

Hold musepekeren over prikken for å se navnet på stasjonen.

Klikk så for å se værobservasjoner og -varsler.

For å forandre kartet kan du klikke på den grønne knappen med svart kryss for å zoome inn, på den grønne knappen med strek for å zoome ut, eller på de grønne pilene for å se tilstøtende kart.


METAR-TAF: